Time,TemperatureF,DewpointF,PressureIn,WindDirection,WindDirectionDegrees,WindSpeedMPH,WindSpeedGustMPH,Humidity,HourlyPrecipIn,Conditions,Clouds,dailyrainin,SoftwareType,DateUTC
2013-03-21 00:03:00,25.0,17.0,29.88,ESE,115,21.0,-999.0,70,-99.99,,,-99.99,,2013-03-21 06:03:00,
2013-03-21 00:12:00,25.0,17.0,29.88,ESE,115,21.0,-999.0,70,-99.99,,,-99.99,,2013-03-21 06:12:00,
2013-03-21 00:22:00,25.0,17.0,29.87,SE,125,18.0,-999.0,70,-99.99,,,-99.99,,2013-03-21 06:22:00,
2013-03-21 00:32:00,25.0,17.0,29.87,SE,125,17.0,-999.0,70,-99.99,,,-99.99,,2013-03-21 06:32:00,
2013-03-21 00:42:00,25.0,17.0,29.87,SE,125,17.0,-999.0,70,-99.99,,,-99.99,,2013-03-21 06:42:00,
2013-03-21 00:52:00,25.0,16.0,29.87,SE,126,17.0,-999.0,69,-99.99,,,-99.99,,2013-03-21 06:52:00,
2013-03-21 01:02:00,25.0,16.0,29.87,SE,138,18.0,-999.0,67,-99.99,,,-99.99,,2013-03-21 07:02:00,
2013-03-21 01:12:00,25.0,16.0,29.87,SE,138,18.0,-999.0,67,-99.99,,,-99.99,,2013-03-21 07:12:00,
2013-03-21 01:22:00,25.0,15.0,29.86,SE,130,21.0,-999.0,65,-99.99,,,-99.99,,2013-03-21 07:22:00,
2013-03-21 01:32:00,25.0,15.0,29.85,SE,129,20.0,-999.0,66,-99.99,,,-99.99,,2013-03-21 07:32:00,
2013-03-21 01:42:00,25.0,15.0,29.85,SE,129,20.0,-999.0,66,-99.99,,,-99.99,,2013-03-21 07:42:00,
2013-03-21 01:52:00,25.0,15.0,29.85,SE,129,21.0,-999.0,64,-99.99,,,-99.99,,2013-03-21 07:52:00,
2013-03-21 02:02:00,25.0,14.0,29.85,SE,144,21.0,-999.0,63,-99.99,,,-99.99,,2013-03-21 08:02:00,
2013-03-21 02:13:00,25.0,14.0,29.85,SE,144,21.0,-999.0,63,-99.99,,,-99.99,,2013-03-21 08:13:00,
2013-03-21 02:23:00,24.0,13.0,29.85,SE,132,20.0,-999.0,63,-99.99,,,-99.99,,2013-03-21 08:23:00,
2013-03-21 02:33:00,24.0,13.0,29.84,SE,135,21.0,-999.0,63,-99.99,,,-99.99,,2013-03-21 08:33:00,
2013-03-21 02:42:00,24.0,13.0,29.84,SE,135,21.0,-999.0,63,-99.99,,,-99.99,,2013-03-21 08:42:00,
2013-03-21 02:52:00,24.0,14.0,29.83,SE,133,21.0,-999.0,64,-99.99,,,-99.99,,2013-03-21 08:52:00,
2013-03-21 03:02:00,24.0,14.0,29.83,SE,133,21.0,-999.0,64,-99.99,,,-99.99,,2013-03-21 09:02:00,
2013-03-21 03:11:00,24.0,14.0,29.83,SE,133,21.0,-999.0,64,-99.99,,,-99.99,,2013-03-21 09:11:00,
2013-03-21 03:21:00,23.0,13.0,29.82,SE,130,20.0,-999.0,64,-99.99,,,-99.99,,2013-03-21 09:21:00,
2013-03-21 03:33:00,23.0,13.0,29.82,SE,128,18.0,-999.0,65,-99.99,,,-99.99,,2013-03-21 09:33:00,
2013-03-21 03:43:00,23.0,13.0,29.82,SE,128,18.0,-999.0,65,-99.99,,,-99.99,,2013-03-21 09:43:00,
2013-03-21 03:53:00,22.0,12.0,29.83,ESE,123,17.0,-999.0,65,-99.99,,,-99.99,,2013-03-21 09:53:00,
2013-03-21 04:03:00,22.0,12.0,29.82,SE,134,18.0,-999.0,64,-99.99,,,-99.99,,2013-03-21 10:03:00,
2013-03-21 04:12:00,22.0,12.0,29.82,SE,134,18.0,-999.0,64,-99.99,,,-99.99,,2013-03-21 10:12:00,
2013-03-21 04:22:00,22.0,12.0,29.81,SE,130,19.0,-999.0,65,-99.99,,,-99.99,,2013-03-21 10:22:00,
2013-03-21 04:33:00,22.0,12.0,29.79,ESE,121,19.0,-999.0,65,-99.99,,,-99.99,,2013-03-21 10:33:00,
2013-03-21 04:42:00,22.0,12.0,29.79,ESE,121,19.0,-999.0,65,-99.99,,,-99.99,,2013-03-21 10:42:00,
2013-03-21 04:53:00,22.0,12.0,29.78,ESE,112,22.0,-999.0,65,-99.99,,,-99.99,,2013-03-21 10:53:00,
2013-03-21 05:03:00,21.0,11.0,29.78,SE,132,23.0,-999.0,65,-99.99,,,-99.99,,2013-03-21 11:03:00,
2013-03-21 05:12:00,21.0,11.0,29.78,SE,132,23.0,-999.0,65,-99.99,,,-99.99,,2013-03-21 11:12:00,
2013-03-21 05:22:00,21.0,11.0,29.80,SE,130,18.0,-999.0,64,-99.99,,,-99.99,,2013-03-21 11:22:00,
2013-03-21 05:33:00,21.0,11.0,29.80,ESE,121,17.0,-999.0,64,-99.99,,,-99.99,,2013-03-21 11:33:00,
2013-03-21 05:43:00,21.0,11.0,29.80,ESE,121,17.0,-999.0,64,-99.99,,,-99.99,,2013-03-21 11:43:00,
2013-03-21 05:53:00,20.0,11.0,29.81,SE,136,14.0,-999.0,66,-99.99,,,-99.99,,2013-03-21 11:53:00,
2013-03-21 06:02:00,20.0,11.0,29.81,ESE,117,14.0,-999.0,67,-99.99,,,-99.99,,2013-03-21 12:02:00,
2013-03-21 06:12:00,20.0,11.0,29.81,ESE,117,14.0,-999.0,67,-99.99,,,-99.99,,2013-03-21 12:12:00,
2013-03-21 06:22:00,20.0,11.0,29.80,SE,134,14.0,-999.0,67,-99.99,,,-99.99,,2013-03-21 12:22:00,
2013-03-21 06:32:00,20.0,11.0,29.79,SE,128,17.0,-999.0,67,-99.99,,,-99.99,,2013-03-21 12:32:00,
2013-03-21 06:42:00,20.0,11.0,29.79,SE,128,17.0,-999.0,67,-99.99,,,-99.99,,2013-03-21 12:42:00,
2013-03-21 06:53:00,20.0,11.0,29.80,ESE,123,16.0,-999.0,67,-99.99,,,-99.99,,2013-03-21 12:53:00,
2013-03-21 07:02:00,20.0,11.0,29.80,SE,126,14.0,-999.0,66,-99.99,,,-99.99,,2013-03-21 13:02:00,
2013-03-21 07:12:00,20.0,11.0,29.80,SE,126,14.0,-999.0,66,-99.99,,,-99.99,,2013-03-21 13:12:00,
2013-03-21 07:22:00,20.0,11.0,29.80,SE,126,14.0,-999.0,66,-99.99,,,-99.99,,2013-03-21 13:22:00,
2013-03-21 07:32:00,20.0,9.0,29.80,SE,134,18.0,-999.0,62,-99.99,,,-99.99,,2013-03-21 13:32:00,
2013-03-21 07:42:00,20.0,9.0,29.80,SE,134,18.0,-999.0,62,-99.99,,,-99.99,,2013-03-21 13:42:00,
2013-03-21 07:52:00,20.0,9.0,29.80,SE,134,20.0,-999.0,61,-99.99,,,-99.99,,2013-03-21 13:52:00,
2013-03-21 08:02:00,20.0,8.0,29.80,SE,130,18.0,-999.0,59,-99.99,,,-99.99,,2013-03-21 14:02:00,
2013-03-21 08:12:00,20.0,8.0,29.80,SE,133,19.0,-999.0,59,-99.99,,,-99.99,,2013-03-21 14:12:00,
2013-03-21 08:22:00,20.0,8.0,29.80,SE,133,19.0,-999.0,59,-99.99,,,-99.99,,2013-03-21 14:22:00,
2013-03-21 08:32:00,20.0,8.0,29.80,SE,137,18.0,-999.0,58,-99.99,,,-99.99,,2013-03-21 14:32:00,
2013-03-21 08:42:00,20.0,8.0,29.80,SE,137,18.0,-999.0,58,-99.99,,,-99.99,,2013-03-21 14:42:00,
2013-03-21 08:52:00,20.0,8.0,29.80,SE,132,17.0,-999.0,59,-99.99,,,-99.99,,2013-03-21 14:52:00,
2013-03-21 09:03:00,20.0,8.0,29.81,SE,140,18.0,-999.0,60,-99.99,,,-99.99,,2013-03-21 15:03:00,
2013-03-21 09:12:00,20.0,8.0,29.81,SE,140,18.0,-999.0,60,-99.99,,,-99.99,,2013-03-21 15:12:00,
2013-03-21 09:22:00,20.0,8.0,29.83,SE,135,16.0,-999.0,58,-99.99,,,-99.99,,2013-03-21 15:22:00,
2013-03-21 09:33:00,21.0,9.0,29.82,SE,138,15.0,-999.0,58,-99.99,,,-99.99,,2013-03-21 15:33:00,
2013-03-21 09:42:00,21.0,9.0,29.82,SE,138,15.0,-999.0,58,-99.99,,,-99.99,,2013-03-21 15:42:00,
2013-03-21 09:53:00,21.0,9.0,29.82,SE,138,15.0,-999.0,58,-99.99,,,-99.99,,2013-03-21 15:53:00,
2013-03-21 10:03:00,22.0,10.0,29.82,SE,130,14.0,-999.0,58,-99.99,,,-99.99,,2013-03-21 16:03:00,
2013-03-21 10:12:00,22.0,10.0,29.82,SE,130,14.0,-999.0,58,-99.99,,,-99.99,,2013-03-21 16:12:00,
2013-03-21 10:23:00,22.0,9.0,29.82,SE,134,14.0,-999.0,57,-99.99,,,-99.99,,2013-03-21 16:23:00,
2013-03-21 10:33:00,23.0,9.0,29.83,ESE,122,13.0,-999.0,55,-99.99,,,-99.99,,2013-03-21 16:33:00,
2013-03-21 10:42:00,23.0,9.0,29.83,ESE,122,13.0,-999.0,55,-99.99,,,-99.99,,2013-03-21 16:42:00,
2013-03-21 10:53:00,23.0,9.0,29.82,SE,141,14.0,-999.0,54,-99.99,,,-99.99,,2013-03-21 16:53:00,
2013-03-21 11:02:00,23.0,9.0,29.82,SE,124,16.0,-999.0,54,-99.99,,,-99.99,,2013-03-21 17:02:00,
2013-03-21 11:12:00,23.0,9.0,29.82,SE,124,16.0,-999.0,54,-99.99,,,-99.99,,2013-03-21 17:12:00,
2013-03-21 11:23:00,24.0,9.0,29.83,ESE,118,14.0,-999.0,52,-99.99,,,-99.99,,2013-03-21 17:23:00,
2013-03-21 11:32:00,24.0,10.0,29.83,SE,130,14.0,-999.0,54,-99.99,,,-99.99,,2013-03-21 17:32:00,
2013-03-21 11:42:00,24.0,10.0,29.83,SE,130,14.0,-999.0,54,-99.99,,,-99.99,,2013-03-21 17:42:00,
2013-03-21 11:53:00,23.0,9.0,29.84,SE,126,13.0,-999.0,54,-99.99,,,-99.99,,2013-03-21 17:53:00,
2013-03-21 12:02:00,24.0,11.0,29.84,ESE,123,13.0,-999.0,56,-99.99,,,-99.99,,2013-03-21 18:02:00,
2013-03-21 12:12:00,24.0,11.0,29.84,ESE,123,13.0,-999.0,56,-99.99,,,-99.99,,2013-03-21 18:12:00,
2013-03-21 12:23:00,24.0,10.0,29.84,SE,127,13.0,-999.0,54,-99.99,,,-99.99,,2013-03-21 18:23:00,
2013-03-21 12:32:00,25.0,11.0,29.84,ESE,122,11.0,-999.0,54,-99.99,,,-99.99,,2013-03-21 18:32:00,
2013-03-21 12:42:00,25.0,11.0,29.84,ESE,122,11.0,-999.0,54,-99.99,,,-99.99,,2013-03-21 18:42:00,
2013-03-21 12:52:00,25.0,11.0,29.84,SE,133,12.0,-999.0,54,-99.99,,,-99.99,,2013-03-21 18:52:00,
2013-03-21 13:02:00,25.0,11.0,29.84,SE,143,12.0,-999.0,54,-99.99,,,-99.99,,2013-03-21 19:02:00,
2013-03-21 13:12:00,25.0,11.0,29.84,SE,143,12.0,-999.0,54,-99.99,,,-99.99,,2013-03-21 19:12:00,
2013-03-21 13:22:00,25.0,11.0,29.85,ESE,122,12.0,-999.0,54,-99.99,,,-99.99,,2013-03-21 19:22:00,
2013-03-21 13:32:00,25.0,12.0,29.85,SE,136,11.0,-999.0,56,-99.99,,,-99.99,,2013-03-21 19:32:00,
2013-03-21 13:42:00,25.0,12.0,29.85,SE,136,11.0,-999.0,56,-99.99,,,-99.99,,2013-03-21 19:42:00,
2013-03-21 13:53:00,25.0,12.0,29.85,ESE,118,10.0,-999.0,56,-99.99,,,-99.99,,2013-03-21 19:53:00,
2013-03-21 14:02:00,26.0,12.0,29.85,SE,126,12.0,-999.0,56,-99.99,,,-99.99,,2013-03-21 20:02:00,
2013-03-21 14:12:00,26.0,12.0,29.85,SE,126,12.0,-999.0,56,-99.99,,,-99.99,,2013-03-21 20:12:00,
2013-03-21 14:22:00,26.0,13.0,29.85,SE,138,11.0,-999.0,57,-99.99,,,-99.99,,2013-03-21 20:22:00,
2013-03-21 14:33:00,26.0,12.0,29.85,SE,129,11.0,-999.0,56,-99.99,,,-99.99,,2013-03-21 20:33:00,
2013-03-21 14:42:00,26.0,12.0,29.85,SE,129,11.0,-999.0,56,-99.99,,,-99.99,,2013-03-21 20:42:00,
2013-03-21 14:53:00,26.0,13.0,29.85,SE,138,10.0,-999.0,58,-99.99,,,-99.99,,2013-03-21 20:53:00,
2013-03-21 15:02:00,26.0,13.0,29.85,ESE,121,12.0,-999.0,58,-99.99,,,-99.99,,2013-03-21 21:02:00,
2013-03-21 15:12:00,26.0,13.0,29.85,ESE,121,12.0,-999.0,58,-99.99,,,-99.99,,2013-03-21 21:12:00,
2013-03-21 15:22:00,25.0,14.0,29.85,ESE,123,11.0,-999.0,62,-99.99,,,-99.99,,2013-03-21 21:22:00,
2013-03-21 15:33:00,25.0,14.0,29.85,ESE,117,12.0,-999.0,63,-99.99,,,-99.99,,2013-03-21 21:33:00,
2013-03-21 15:43:00,25.0,14.0,29.85,ESE,117,12.0,-999.0,63,-99.99,,,-99.99,,2013-03-21 21:43:00,
2013-03-21 15:53:00,25.0,16.0,29.86,SE,130,9.0,-999.0,68,-99.99,,,-99.99,,2013-03-21 21:53:00,
2013-03-21 16:02:00,25.0,17.0,29.88,SE,133,9.0,-999.0,71,-99.99,,,-99.99,,2013-03-21 22:02:00,
2013-03-21 16:13:00,25.0,17.0,29.88,SE,133,9.0,-999.0,71,-99.99,,,-99.99,,2013-03-21 22:13:00,
2013-03-21 16:23:00,25.0,16.0,29.88,SE,128,8.0,-999.0,69,-99.99,,,-99.99,,2013-03-21 22:23:00,
2013-03-21 16:33:00,25.0,17.0,29.88,SE,125,10.0,-999.0,71,-99.99,,,-99.99,,2013-03-21 22:33:00,
2013-03-21 16:42:00,25.0,17.0,29.88,SE,125,10.0,-999.0,71,-99.99,,,-99.99,,2013-03-21 22:42:00,
2013-03-21 16:52:00,24.0,18.0,29.89,SE,128,10.0,-999.0,76,-99.99,,,-99.99,,2013-03-21 22:52:00,
2013-03-21 17:02:00,24.0,18.0,29.89,SE,126,9.0,-999.0,78,-99.99,,,-99.99,,2013-03-21 23:02:00,
2013-03-21 17:12:00,24.0,18.0,29.89,SE,126,9.0,-999.0,78,-99.99,,,-99.99,,2013-03-21 23:12:00,
2013-03-21 17:22:00,24.0,18.0,29.90,ESE,120,7.0,-999.0,79,-99.99,,,-99.99,,2013-03-21 23:22:00,
2013-03-21 17:32:00,23.0,18.0,29.90,SE,126,10.0,-999.0,80,-99.99,,,-99.99,,2013-03-21 23:32:00,
2013-03-21 17:42:00,23.0,18.0,29.90,SE,126,10.0,-999.0,80,-99.99,,,-99.99,,2013-03-21 23:42:00,
2013-03-21 17:53:00,23.0,18.0,29.90,ESE,116,9.0,-999.0,82,-99.99,,,-99.99,,2013-03-21 23:53:00,
2013-03-21 18:02:00,22.0,18.0,29.91,ESE,115,9.0,-999.0,83,-99.99,,,-99.99,,2013-03-22 00:02:00,
2013-03-21 18:12:00,22.0,18.0,29.91,ESE,115,9.0,-999.0,83,-99.99,,,-99.99,,2013-03-22 00:12:00,
2013-03-21 18:22:00,23.0,19.0,29.91,SE,124,7.0,-999.0,84,-99.99,,,-99.99,,2013-03-22 00:22:00,
2013-03-21 18:32:00,23.0,19.0,29.92,SE,142,8.0,-999.0,84,-99.99,,,-99.99,,2013-03-22 00:32:00,
2013-03-21 18:42:00,23.0,19.0,29.92,SE,142,8.0,-999.0,84,-99.99,,,-99.99,,2013-03-22 00:42:00,
2013-03-21 18:52:00,22.0,18.0,29.92,SE,134,7.0,-999.0,85,-99.99,,,-99.99,,2013-03-22 00:52:00,
2013-03-21 19:02:00,22.0,18.0,29.93,SE,134,6.0,-999.0,86,-99.99,,,-99.99,,2013-03-22 01:02:00,
2013-03-21 19:12:00,22.0,18.0,29.93,SE,134,6.0,-999.0,86,-99.99,,,-99.99,,2013-03-22 01:12:00,
2013-03-21 19:22:00,22.0,18.0,29.93,SE,132,5.0,-999.0,86,-99.99,,,-99.99,,2013-03-22 01:22:00,
2013-03-21 19:32:00,22.0,18.0,29.93,SE,132,5.0,-999.0,86,-99.99,,,-99.99,,2013-03-22 01:32:00,
2013-03-21 19:42:00,22.0,18.0,29.93,SE,132,5.0,-999.0,86,-99.99,,,-99.99,,2013-03-22 01:42:00,
2013-03-21 19:52:00,22.0,19.0,29.93,SE,126,8.0,-999.0,87,-99.99,,,-99.99,,2013-03-22 01:52:00,
2013-03-21 20:02:00,22.0,19.0,29.93,SE,126,8.0,-999.0,87,-99.99,,,-99.99,,2013-03-22 02:02:00,
2013-03-21 20:12:00,22.0,19.0,29.93,SE,126,8.0,-999.0,87,-99.99,,,-99.99,,2013-03-22 02:12:00,
2013-03-21 20:22:00,22.0,19.0,29.94,SE,126,8.0,-999.0,87,-99.99,,,-99.99,,2013-03-22 02:22:00,
2013-03-21 20:32:00,22.0,19.0,29.94,ESE,121,7.0,-999.0,87,-99.99,,,-99.99,,2013-03-22 02:32:00,
2013-03-21 20:43:00,22.0,19.0,29.94,ESE,121,7.0,-999.0,87,-99.99,,,-99.99,,2013-03-22 02:43:00,
2013-03-21 20:52:00,22.0,19.0,29.94,ESE,121,7.0,-999.0,88,-99.99,,,-99.99,,2013-03-22 02:52:00,
2013-03-21 21:02:00,22.0,19.0,29.95,ESE,119,7.0,-999.0,88,-99.99,,,-99.99,,2013-03-22 03:02:00,
2013-03-21 21:12:00,22.0,19.0,29.95,ESE,119,7.0,-999.0,88,-99.99,,,-99.99,,2013-03-22 03:12:00,
2013-03-21 21:22:00,22.0,19.0,29.95,ESE,119,7.0,-999.0,88,-99.99,,,-99.99,,2013-03-22 03:22:00,
2013-03-21 21:33:00,22.0,19.0,29.94,ESE,119,9.0,-999.0,88,-99.99,,,-99.99,,2013-03-22 03:33:00,
2013-03-21 21:43:00,22.0,19.0,29.94,ESE,119,9.0,-999.0,88,-99.99,,,-99.99,,2013-03-22 03:43:00,
2013-03-21 21:53:00,22.0,19.0,29.93,ESE,121,9.0,-999.0,88,-99.99,,,-99.99,,2013-03-22 03:53:00,
2013-03-21 22:03:00,22.0,19.0,29.95,ESE,118,8.0,-999.0,88,-99.99,,,-99.99,,2013-03-22 04:03:00,
2013-03-21 22:12:00,22.0,19.0,29.95,ESE,118,8.0,-999.0,88,-99.99,,,-99.99,,2013-03-22 04:12:00,
2013-03-21 22:23:00,22.0,19.0,29.95,SE,124,6.0,-999.0,88,-99.99,,,-99.99,,2013-03-22 04:23:00,
2013-03-21 22:32:00,22.0,19.0,29.95,SE,127,7.0,-999.0,88,-99.99,,,-99.99,,2013-03-22 04:32:00,
2013-03-21 22:43:00,22.0,19.0,29.95,SE,127,7.0,-999.0,88,-99.99,,,-99.99,,2013-03-22 04:43:00,
2013-03-21 22:52:00,22.0,19.0,29.95,ESE,122,6.0,-999.0,89,-99.99,,,-99.99,,2013-03-22 04:52:00,
2013-03-21 23:02:00,22.0,19.0,29.95,ESE,123,5.0,-999.0,89,-99.99,,,-99.99,,2013-03-22 05:02:00,
2013-03-21 23:12:00,22.0,19.0,29.95,ESE,123,5.0,-999.0,89,-99.99,,,-99.99,,2013-03-22 05:12:00,
2013-03-21 23:22:00,22.0,19.0,29.96,ESE,123,4.0,-999.0,89,-99.99,,,-99.99,,2013-03-22 05:22:00,
2013-03-21 23:32:00,22.0,19.0,29.96,ESE,123,4.0,-999.0,89,-99.99,,,-99.99,,2013-03-22 05:32:00,
2013-03-21 23:42:00,22.0,19.0,29.96,ESE,123,4.0,-999.0,89,-99.99,,,-99.99,,2013-03-22 05:42:00,
2013-03-21 23:52:00,22.0,19.0,29.96,ESE,123,4.0,-999.0,89,-99.99,,,-99.99,,2013-03-22 05:52:00,